STARLINK-3080, 49161

Orbit data source: Space-Track

STARLINK-3080, 49161 is a payload satellite owned by SpaceX/Seattle (US) in LEO that was launched on Tue, 14 Sep 2021 UTC via an FALCON 9 launch vehicle from the Air Force Western Test Range (AFWTR). Payload-class satellites include a variety of spacecraft equipped with specific instruments for various scientific and technological missions. These include communications satellites like Starlink; space stations such as the ISS; scientific satellites like the Hubble; Earth observation satellites from companies like Planet Labs, Umbra, and HawkEye 360; GPS; miniature CubeSats for education and research; and military/defense satellites.

Loading next visibility...
Identifier
49161, 2021-082AH
Orbit
LEO
Country
Flag of USUS
Related business
Manufacturer
SpaceX/Seattle
Mission
Operational Commercial Communications
Bus & Motor
STARLINK, Unknown motor
Mass
297 kg wet, ~275 kg dry
Launch date (UTC)
2021-09-14 (4 years ago)
Launch vehicle
FALCON 9
Launch site
Air Force Western Test Range (AFWTR)
Object type
Payload
Rocket body
Debris
Shape & HBR
Box + 1 Pan, 10.1 m
Radar Cross Section
13.562 m², Large (>1 m²)

Expand to show TLE details & history
Last TLE update: 7 hours ago

TLE from 7 hours ago
0 STARLINK-3080
1 49161U 21082AH  25310.77546970  .00001231  00000-0  11095-3 0  9996
2 49161  69.9993 244.3425 0002677 267.2443  92.8409 14.98333155228648
Epoch: 2025-11-06T18:36Z
TLE epoch observation values (Epoch: 2025-11-06T18:36:40.582Z)
Latitude
-0.00006°
Longitude
-81.05556°
Altitude
574.563 km
Speed
7.574 km/s
True Right ascension
16h 17m 22s
True Declination
0° 00' 00"
Sunlit
Object was in daylight at epoch
Visualization orbit readout
Latitude
Unknown
Longitude
Unknown
Altitude
Unknown
Speed
Unknown
Apparent Right ascension
Unknown
Apparent Declination
Unknown
Sunlit
N/A
Visualization observer readout
Local Sidereal Time
21:22:42
Azimuth
Unknown
Elevation
Unknown
Doppler factor
Unknown
Orbital elements
Apogee altitude
571.854 km
Perigee altitude
568.134 km
Semi-major axis
6,948.131 km
Eccentricity
0.00027
Inclination
69.9993°
RAAN
244.3425°
Arg. of periapsis
267.2443°
True anomaly
92.87154°
Mean anomaly
92.8409°
Eccentric anomaly
92.85622°
Mean motion
3.7475 °/min
Orbital period
96.06 mins
BSTAR
0.00011095
Loading maneuver chart data...
Computing Atmospheric mass density...

Documentation

Showing up to 5 results
|